Vorticity
5 4 4 3 3 3 2 3 4 2 4 4 5 6 6 4 1 2 3 4 3 2 4 4 4 4 4 3 4 3 3 5 4 5 6 8 7 6 7 7 5 5 8 6 5 6 6 7 8 9 9 8 8 8 7 8 7 8 11 10 7 2 0 1 4 4 4 5 4 4 4 4 3 3 3 3 2 2 2 2 3 2 3 3 2 3 3 3 3 3 4 3 3 4 4 4 4
5 5 5 5 4 5 4 5 6 3 5 6 6 5 5 7 3 1 2 3 3 4 5 6 5 4 4 3 5 4 5 7 7 7 7 9 9 9 8 9 7 5 9 8 7 8 8 8 8 7 7 6 6 7 7 7 7 9 10 8 3 -1 -2 -0 3 4 5 4 3 3 2 3 2 1 1 1 1 2 2 2 2 2 2 2 2 2 2 2 3 3 3 4 4 4 4 4 4
3 3 4 3 4 3 2 3 5 4 4 5 7 4 4 9 8 5 4 4 6 8 6 5 6 6 7 7 8 7 8 9 9 9 8 9 9 10 9 9 9 7 8 9 9 9 8 8 7 7 7 7 8 9 9 9 9 10 9 6 2 -2 -3 -1 2 4 5 4 3 2 2 2 2 1 1 1 2 2 2 2 2 1 1 1 1 1 1 1 2 2 2 3 3 4 4 5 5
0 1 2 3 3 4 5 5 5 7 8 8 6 3 4 3 5 8 7 6 6 9 9 8 9 10 10 11 11 9 9 8 8 8 6 7 6 7 7 7 8 7 8 8 7 7 7 7 7 8 8 8 9 10 10 10 9 9 8 5 1 -2 -3 -1 3 5 5 4 3 2 2 2 1 1 1 1 2 2 2 2 1 1 1 1 1 1 1 1 1 2 2 2 2 3 3 3 4
2 3 4 6 6 5 7 7 8 9 7 8 4 0 8 5 2 5 5 8 9 10 10 9 10 9 10 9 9 8 8 6 6 6 5 5 5 5 5 5 5 5 6 6 6 6 5 6 6 7 7 8 7 7 7 8 8 7 6 4 1 -2 -3 0 4 5 5 4 2 1 1 0 1 1 1 2 2 2 2 1 1 1 1 1 1 1 1 2 2 2 2 2 2 2 2 3 3
1 1 4 4 3 3 5 10 12 11 5 6 5 -3 7 12 8 7 6 7 7 6 5 6 6 5 6 5 5 5 4 4 4 4 4 4 4 4 4 4 4 4 3 4 5 5 5 5 6 5 5 5 5 4 3 3 4 4 3 2 1 -1 -1 2 5 6 4 4 2 -0 -0 -0 0 1 1 1 1 1 1 1 1 1 1 1 1 2 1 1 1 1 2 2 2 3 3 3 3
-1 0 5 5 6 8 11 14 11 8 3 3 6 0 3 5 3 6 7 6 5 4 5 6 7 7 7 6 6 6 5 5 5 4 5 4 4 4 4 4 5 5 3 4 4 5 6 5 5 5 5 4 4 3 2 2 1 2 2 2 2 3 4 5 6 6 4 2 1 -1 -1 0 0 1 1 1 1 1 1 1 1 1 1 1 1 1 1 1 1 1 2 2 2 3 3 3 3
9 10 10 11 13 13 11 10 8 6 3 2 4 3 3 -0 -2 3 5 5 6 5 6 7 8 8 8 7 6 8 7 7 7 6 7 7 7 7 7 7 7 7 7 7 6 6 6 5 5 4 4 4 3 3 3 4 3 4 4 5 5 6 7 6 6 5 3 1 0 -0 -0 0 1 1 1 1 1 1 1 1 1 1 0 1 1 1 1 1 1 1 1 2 2 3 3 3 3
15 14 10 10 9 7 6 4 6 5 4 4 2 2 5 5 3 4 4 4 5 5 5 6 7 6 6 6 5 6 6 5 6 6 7 7 8 8 8 8 8 8 8 8 7 7 6 6 6 5 5 4 4 5 5 6 7 7 7 7 6 6 5 5 4 3 2 2 1 1 1 1 1 1 1 1 1 1 1 1 1 1 1 1 1 1 1 1 1 2 2 3 3 4 4 4 4
9 8 5 6 4 2 4 3 3 3 3 3 2 3 4 5 4 3 3 4 5 4 5 5 5 5 5 5 5 5 5 5 5 5 4 4 4 5 5 5 5 6 6 6 6 6 6 6 6 6 6 6 6 6 6 6 7 6 6 5 5 4 4 3 3 2 2 2 1 1 1 1 1 1 1 1 1 1 1 1 1 1 1 1 1 1 1 1 1 2 2 3 4 4 4 5 4
2 3 2 2 2 1 2 2 2 2 3 2 4 3 2 3 3 3 4 5 5 4 5 5 4 5 4 5 6 5 5 6 5 5 5 5 5 4 4 4 4 4 4 4 4 4 4 4 5 5 5 5 5 5 5 5 5 4 4 4 4 3 3 3 2 2 2 1 1 1 1 1 1 1 1 1 1 1 1 1 1 2 2 1 1 2 2 2 2 3 4 4 5 5 5 5 5
1 1 1 1 2 2 1 3 3 3 2 3 5 4 4 5 4 4 5 6 6 6 7 6 6 6 5 6 7 6 6 6 6 7 7 7 6 6 5 5 4 4 3 3 4 4 4 4 5 5 4 4 4 4 4 4 4 4 4 3 3 3 3 3 2 2 2 2 2 2 2 2 2 2 2 2 2 2 2 2 2 3 3 3 4 3 4 4 4 5 5 5 6 6 6 6 6
1 1 2 2 2 3 3 3 3 3 2 2 3 4 6 5 5 6 6 6 6 7 7 6 7 6 5 6 8 8 7 7 7 7 7 7 7 7 7 6 6 6 5 5 5 5 5 6 6 5 5 4 4 4 4 4 4 4 4 4 3 4 3 3 3 3 3 3 3 3 3 3 3 3 3 3 3 3 3 3 4 4 5 6 6 6 6 6 6 6 6 6 6 6 5 5 5
2 2 3 3 2 3 3 4 4 4 3 3 5 5 7 6 5 5 6 6 5 6 6 6 6 6 6 6 6 7 7 7 7 6 6 7 7 7 7 8 8 8 8 7 8 8 7 7 6 6 5 5 5 4 5 5 5 5 5 5 5 5 5 4 4 4 4 4 4 4 4 4 4 4 4 4 4 4 5 5 5 6 7 7 7 7 7 7 7 7 7 6 6 6 5 5 5
3 4 5 4 3 4 4 5 4 4 4 6 8 7 6 6 5 5 5 5 5 5 4 5 5 5 7 6 5 5 6 5 5 6 5 6 6 7 6 7 7 8 8 8 8 7 7 7 6 6 6 6 7 5 5 6 5 6 6 6 6 6 6 5 5 5 5 6 5 5 6 5 5 5 6 6 7 7 7 7 6 6 7 7 7 7 7 7 7 6 6 6 6 6 6 6 6
4 4 5 4 4 4 4 5 4 6 6 4 6 6 4 5 6 6 5 4 5 5 4 4 5 5 6 6 5 4 5 5 5 5 5 6 6 5 5 5 6 6 6 6 6 6 6 5 5 6 5 5 7 5 5 7 6 5 6 5 6 6 6 6 6 6 6 6 6 5 6 6 6 6 7 7 7 7 7 7 6 6 5 5 6 6 6 6 6 7 7 7 7 6 6 6 6
5 5 5 5 5 4 4 6 5 6 5 3 4 5 5 4 5 6 5 5 4 4 4 5 6 5 5 6 5 4 4 5 5 5 5 5 5 5 5 5 5 5 5 5 5 5 5 4 4 5 5 4 5 5 3 5 6 4 4 4 4 5 5 5 5 5 5 5 5 5 5 5 6 6 6 6 6 5 6 6 5 5 5 5 5 6 6 6 6 6 6 6 6 6 6 5 5
4 4 5 4 4 3 4 5 5 4 4 5 4 4 5 5 5 4 5 5 4 4 5 5 4 4 4 4 4 4 4 4 5 5 5 4 4 4 4 4 4 4 4 4 4 4 5 5 4 4 4 3 4 4 3 3 4 4 3 3 3 3 4 3 3 3 4 4 4 5 4 4 4 4 4 4 5 4 5 6 5 5 5 5 5 5 5 5 5 5 5 5 5 6 6 5 5
4 5 5 3 3 4 3 3 4 4 5 5 5 4 4 6 5 4 5 4 3 5 6 5 4 4 4 4 4 4 5 5 5 5 5 4 4 4 4 4 3 4 4 4 4 4 4 4 4 3 3 3 3 3 3 3 3 3 3 3 3 3 4 3 3 3 4 4 4 4 4 4 4 4 4 4 5 4 4 5 6 6 5 5 5 5 4 5 5 4 5 5 5 5 5 5 5
5 6 6 4 5 5 4 5 6 4 4 4 5 5 4 4 4 5 7 5 5 6 5 4 4 5 5 4 4 5 4 4 4 4 4 4 4 4 4 4 3 4 4 3 3 3 4 3 3 3 3 3 3 3 3 3 3 4 4 4 4 4 4 4 4 4 4 5 4 5 5 5 5 5 5 5 5 5 5 5 5 6 5 5 6 5 5 5 5 4 4 4 5 4 5 5 4
5 5 6 6 6 4 4 7 5 4 5 5 5 5 5 4 4 5 6 6 6 5 4 4 4 4 4 5 4 4 4 4 4 4 4 4 5 5 4 3 3 3 3 3 3 3 3 3 3 2 3 3 3 4 3 4 4 4 4 4 4 4 5 5 5 5 6 6 6 6 6 6 6 6 6 5 6 6 6 5 5 6 6 6 6 6 6 5 5 5 5 5 5 5 5 6 5
6 5 4 6 7 5 6 7 5 6 6 6 6 6 5 4 5 6 5 4 5 4 4 5 5 4 4 4 4 4 4 4 5 4 5 5 5 4 4 4 4 4 4 4 3 4 4 3 4 4 4 4 4 4 4 5 5 5 5 5 5 5 5 6 6 5 5 6 6 5 5 5 5 6 6 5 5 6 6 5 5 5 5 6 6 6 6 6 6 6 6 6 7 6 6 6 6
6 6 5 5 6 5 6 6 5 6 5 6 6 5 5 5 5 5 4 4 4 5 5 5 5 5 5 4 5 5 5 6 5 5 6 6 5 5 5 6 5 5 5 4 4 5 5 5 5 5 5 5 5 6 5 5 5 6 5 6 6 5 5 5 5 5 4 5 5 5 5 6 5 5 5 5 5 5 6 5 5 5 5 5 5 6 7 7 7 7 7 7 7 8 7 7 6
5 5 4 5 4 4 5 4 5 5 4 5 4 3 4 4 4 4 4 5 5 5 5 6 6 6 7 7 6 7 7 7 6 6 6 5 5 6 6 5 5 5 4 4 4 5 6 5 5 6 5 5 5 6 5 5 5 5 5 5 5 5 5 4 5 5 4 4 5 5 5 5 5 5 5 6 6 6 6 6 7 7 6 7 6 7 7 8 8 8 8 8 8 8 8 8 8
8 6 5 6 4 4 5 3 5 5 5 5 4 4 5 4 5 6 6 6 6 5 6 7 7 7 8 8 7 7 6 6 6 6 6 5 5 5 5 5 5 5 5 5 5 5 6 5 5 5 5 5 4 5 5 4 5 4 4 5 4 4 5 5 5 5 5 4 4 5 5 5 6 6 6 6 7 7 7 7 8 8 8 8 8 8 8 8 8 8 8 8 8 8 8 8 8
9 8 7 8 7 8 7 6 7 6 6 7 6 6 7 7 8 8 7 6 7 7 7 7 7 7 6 6 6 6 6 5 5 5 5 5 5 5 5 5 5 5 5 5 4 4 5 5 4 4 4 4 4 4 4 5 4 5 5 5 5 5 5 5 6 6 6 6 6 6 6 7 7 8 8 8 9 9 9 9 9 9 9 9 9 8 8 8 7 7 7 7 8 8 8 8 8
8 9 9 8 7 8 8 7 7 8 8 8 8 9 7 7 8 8 8 7 7 7 7 7 5 5 5 5 5 4 5 4 4 4 4 4 4 4 4 4 4 4 4 4 4 4 4 4 4 4 4 4 5 4 5 5 5 5 5 5 6 6 6 6 6 7 7 7 8 8 8 9 9 10 10 11 11 11 10 10 9 9 9 8 9 8 8 8 7 7 7 7 7 7 8 8 9
7 9 9 9 8 7 7 6 6 7 8 7 7 7 6 7 8 7 6 6 6 5 4 3 3 3 3 3 3 3 3 3 3 2 3 3 3 3 3 4 4 5 5 5 5 5 5 6 6 6 6 6 6 6 6 6 6 6 6 7 7 8 8 9 9 10 10 10 11 11 11 11 11 11 10 10 10 9 9 9 8 8 8 8 8 8 7 8 8 8 8 7 7 7 8 8 9
7 8 8 8 6 6 8 8 7 7 6 6 5 4 4 5 5 4 3 2 2 2 1 1 2 2 2 3 3 3 4 4 5 5 5 5 5 6 6 7 7 7 7 7 7 7 8 8 8 8 8 9 9 9 9 9 9 9 10 10 11 11 11 12 12 12 12 12 12 11 11 10 9 9 8 8 7 7 7 7 8 7 8 8 8 8 8 8 9 9 9 9 8 8 8 8 8
9 9 8 6 5 6 8 6 6 6 4 4 4 4 1 -1 0 2 3 3 2 3 4 4 5 5 6 6 6 7 7 7 7 7 8 7 8 8 8 9 9 9 9 10 10 10 11 11 11 11 11 11 11 11 12 12 12 12 12 12 12 12 12 12 11 11 11 10 9 8 8 8 7 7 7 7 7 8 8 8 9 9 9 10 10 10 10 10 10 10 9 9 9 9 8 7 7
10 9 8 8 7 8 9 7 5 4 3 2 3 6 6 4 5 6 8 9 7 8 8 8 8 8 8 8 8 8 8 8 9 9 10 10 11 11 11 12 12 12 12 12 12 12 12 11 11 11 11 11 11 11 11 11 11 11 11 11 10 10 10 10 9 9 9 8 8 7 7 8 8 8 8 9 9 10 10 10 10 10 11 11 11 11 10 10 9 9 9 9 9 8 7 7 7
7 7 7 7 7 6 6 6 6 5 6 6 7 11 12 11 10 9 8 9 8 8 8 8 8 8 9 9 10 10 10 11 11 11 12 12 12 11 11 11 11 11 11 10 10 10 10 10 10 10 10 11 11 11 11 11 11 10 10 10 11 10 10 10 10 10 10 10 10 9 10 10 11 10 10 11 10 11 11 11 11 11 11 10 10 10 9 9 8 8 8 7 7 6 6 7 7
8 8 8 8 8 9 9 9 10 10 10 9 8 9 9 8 8 8 8 8 9 9 9 9 9 9 9 10 10 10 10 10 10 10 10 10 10 10 9 10 10 10 10 10 10 11 11 11 12 12 12 13 13 13 13 13 13 12 12 12 12 12 11 11 11 11 11 11 12 11 10 10 11 11 10 10 10 10 11 10 10 10 10 9 8 8 7 7 6 6 6 6 6 6 6 6 6
10 11 9 8 9 9 9 8 8 8 8 8 7 8 8 9 9 9 10 9 9 9 8 8 8 8 7 7 8 8 9 9 10 10 11 11 11 12 12 13 13 14 14 14 14 14 14 14 14 14 14 13 13 12 12 12 11 11 11 10 10 10 10 9 9 9 9 10 10 10 8 8 9 9 9 9 9 9 9 9 9 9 9 8 8 7 6 6 6 6 6 5 6 6 6 6 6
9 10 8 8 7 6 8 8 8 7 7 7 7 7 8 8 7 7 8 8 8 8 8 9 9 9 10 11 11 12 12 12 13 13 13 14 14 15 15 15 15 15 15 15 15 14 14 14 13 12 12 11 11 10 10 10 10 10 10 10 10 10 10 10 9 9 9 9 9 10 9 8 8 9 9 8 9 9 8 8 8 8 8 8 7 7 6 6 6 6 6 6 6 7 8 9 8
8 8 8 8 6 6 7 8 9 8 8 8 9 9 9 10 10 10 10 10 11 11 11 11 11 12 12 12 12 12 12 12 12 13 13 13 14 14 13 13 13 12 12 12 12 12 12 12 12 12 12 12 12 12 12 12 12 12 13 13 12 12 12 12 12 11 11 11 11 11 11 10 10 10 11 10 10 10 10 9 9 8 8 8 7 7 7 7 7 7 7 7 7 8 9 10 10
9 9 9 9 10 11 10 10 10 10 11 11 12 13 11 11 10 10 9 9 9 9 9 9 9 10 10 10 11 11 11 11 11 11 11 11 10 9 9 9 9 9 10 9 9 9 9 9 9 9 9 10 10 10 10 10 10 10 10 11 11 11 11 11 12 11 11 11 11 11 11 11 10 10 10 10 10 10 10 10 9 9 9 8 8 7 7 7 8 8 8 8 8 8 8 8 6
13 13 12 12 12 11 11 10 10 9 8 7 9 9 7 6 6 5 5 5 6 6 7 9 9 10 10 10 11 11 11 10 10 10 9 8 8 7 7 7 7 7 7 6 7 7 7 7 7 7 7 8 8 8 8 8 8 8 7 8 8 8 9 9 9 9 9 9 9 9 9 10 9 8 9 9 9 9 9 9 9 9 9 9 9 8 8 7 7 7 6 6 6 7 6 5 4
9 9 8 7 6 6 6 6 5 4 4 4 5 4 3 4 3 5 6 7 8 9 10 11 11 11 11 11 11 11 10 10 10 9 9 9 9 9 9 10 10 10 11 11 11 11 11 12 11 11 11 10 10 10 10 10 10 10 9 8 8 7 8 8 8 9 8 8 8 8 8 9 8 8 7 7 7 7 8 8 8 8 8 8 8 9 9 8 8 8 7 7 6 6 6 6 6
3 3 3 4 4 4 4 5 5 5 6 7 6 5 6 8 9 9 10 11 11 13 14 14 14 13 13 13 12 11 11 12 12 13 13 14 14 15 15 16 15 15 15 14 13 13 12 11 10 10 9 9 8 8 8 8 7 8 7 7 7 7 6 6 6 7 7 7 7 7 7 8 9 9 8 7 7 7 7 7 7 7 7 7 6 7 7 7 7 8 8 8 7 7 6 6 7
4 5 7 7 7 7 7 8 8 8 8 9 10 9 8 11 13 11 10 13 15 16 16 14 13 13 12 13 13 14 16 16 17 17 17 16 16 16 15 13 13 12 11 10 9 8 7 7 7 6 6 6 6 6 5 5 5 5 5 5 6 6 6 6 5 5 5 5 5 5 5 6 6 7 8 8 8 7 7 8 8 7 8 7 7 6 6 6 6 6 7 7 8 7 6 6 5
10 10 10 9 9 10 10 10 11 11 11 11 10 12 10 8 11 14 16 18 17 13 12 12 13 14 14 15 15 15 15 14 13 13 12 11 10 9 8 8 7 7 7 7 6 6 6 6 6 6 7 7 7 8 7 7 7 7 7 7 7 7 7 7 7 7 6 6 5 5 5 5 5 5 5 6 6 5 6 6 7 7 7 8 8 8 7 7 6 6 6 6 6 6 7 7 5
11 10 10 10 9 9 9 9 10 9 13 14 10 13 17 11 10 15 18 18 16 14 14 15 15 16 15 14 14 13 12 11 10 10 9 8 7 7 7 6 7 7 7 7 7 8 8 9 9 9 9 9 9 10 10 10 10 10 10 10 9 9 9 8 8 9 9 8 8 8 7 7 6 6 6 5 5 4 4 4 4 5 5 6 6 7 7 7 7 7 7 7 7 6 6 7 6
9 9 9 8 7 8 8 9 10 10 13 12 11 17 21 18 17 16 14 12 14 16 16 14 12 12 12 12 11 11 11 10 9 8 8 7 7 7 8 7 7 8 8 9 10 10 11 11 11 11 11 11 10 10 11 10 10 10 10 10 9 9 9 9 9 8 9 9 9 9 9 9 9 9 8 8 8 7 6 6 5 4 4 5 5 5 5 5 6 6 6 6 7 7 7 8 8
5 6 6 7 9 9 10 12 13 14 13 11 16 22 17 14 17 17 13 12 10 8 8 10 11 10 11 10 9 9 8 7 7 7 7 7 7 7 10 12 11 11 12 12 12 12 11 12 12 12 12 11 11 10 10 10 10 10 10 10 9 9 9 9 8 8 8 8 8 8 8 8 8 9 9 9 9 9 9 8 7 7 6 6 5 5 5 5 5 5 5 5 5 5 5 5 6
5 7 8 11 12 10 15 17 13 20 26 21 23 23 11 9 16 17 17 18 18 15 11 12 13 10 8 8 7 7 7 7 8 9 9 9 8 7 8 12 13 12 11 11 11 12 12 13 13 14 14 13 13 13 12 12 12 11 11 10 10 10 10 10 10 10 10 10 10 11 10 11 11 11 11 12 12 12 12 12 11 11 10 9 9 8 8 7 6 6 6 6 6 6 5 5 5
9 10 10 14 15 16 25 25 23 35 32 15 15 16 9 12 18 18 18 17 17 16 12 8 7 6 7 7 7 8 8 9 8 8 8 9 11 11 7 7 8 9 9 10 11 12 12 13 13 13 13 13 12 11 11 11 11 10 10 9 9 10 11 11 11 12 13 14 15 16 16 17 17 18 18 18 19 19 19 20 19 19 18 16 16 15 15 14 13 12 11 10 9 8 7 6 6
13 14 16 20 19 24 30 25 26 31 13 -1 9 12 8 13 17 14 11 9 7 7 6 5 5 6 7 8 8 8 8 8 7 8 8 9 9 10 9 7 8 8 8 9 9 10 10 10 11 11 11 11 11 11 11 11 12 13 13 14 14 16 17 19 19 19 20 20 21 21 22 22 22 22 23 23 23 23 23 24 25 25 25 24 24 23 23 23 23 23 22 21 20 18 16 14 11
16 17 19 21 20 25 29 23 23 22 9 8 14 12 13 15 11 6 4 5 5 4 5 6 7 7 7 8 8 8 7 7 7 7 7 7 6 6 7 8 7 6 6 6 7 8 9 9 11 11 11 13 13 13 14 14 15 16 17 19 19 21 23 24 25 25 25 25 24 23 23 22 21 21 21 20 20 20 20 20 21 22 23 23 23 23 23 24 25 25 26 26 27 27 27 26 24
17 18 19 22 22 25 25 19 17 17 13 13 11 12 17 11 2 3 5 5 4 4 6 7 8 7 8 8 8 7 7 6 6 5 5 5 5 5 7 7 7 6 5 5 6 7 8 10 12 13 14 15 16 17 17 18 18 19 20 21 22 22 22 22 22 21 21 21 20 20 19 18 18 17 17 16 17 17 16 16 16 16 17 17 18 18 18 18 18 19 20 20 22 24 25 26 27
18 19 21 23 21 20 19 14 13 15 13 12 11 12 9 2 2 5 4 3 4 6 8 7 7 7 7 7 7 6 5 4 4 3 4 3 2 3 6 7 7 7 6 6 6 6 8 10 12 14 16 17 18 19 20 20 21 21 21 22 22 22 21 20 19 18 17 17 16 16 16 16 16 15 15 14 14 14 14 14 14 13 14 14 14 14 14 15 15 15 15 15 15 16 17 18 20
19 19 19 18 16 16 16 13 12 11 11 12 9 5 2 2 4 4 3 4 6 7 7 7 7 7 7 7 6 5 4 5 4 4 4 3 0 0 4 6 7 8 7 5 4 5 7 9 12 15 17 19 20 21 22 22 22 22 21 21 20 19 18 17 17 16 15 15 14 14 14 14 14 14 14 14 14 14 13 13 12 11 11 11 11 11 11 12 12 12 12 12 12 12 13 13 13
19 17 15 16 15 13 11 11 10 9 9 9 5 1 2 5 4 3 4 7 8 7 6 7 7 7 8 7 6 6 6 6 5 5 6 6 3 0 3 4 5 7 7 4 3 4 7 9 12 16 18 20 21 22 22 22 21 21 20 19 18 16 15 15 14 13 13 13 12 12 12 12 12 13 13 13 14 14 14 14 14 14 13 13 12 12 11 11 11 10 10 9 9 9 9 9 10
18 15 13 14 13 10 10 12 11 8 7 6 4 2 2 4 6 6 7 8 8 7 7 8 8 8 8 7 6 6 6 5 5 5 5 6 5 2 3 5 5 7 8 6 3 3 7 10 12 17 20 21 22 22 22 21 19 18 16 15 14 13 12 11 11 10 10 11 11 11 12 12 13 13 14 14 15 15 15 16 16 16 16 16 16 15 15 15 14 14 13 12 12 11 10 9 8
15 13 12 11 11 10 11 12 9 7 6 4 4 4 4 5 7 7 8 8 7 7 9 9 8 8 7 6 6 6 5 5 5 4 3 4 6 5 5 8 8 8 9 8 4 4 6 10 13 17 21 22 22 22 21 19 16 14 12 11 9 8 7 7 8 9 9 10 11 12 13 14 15 16 17 17 18 17 17 18 18 18 17 17 17 17 17 17 16 16 15 14 13 12 12 11 9
12 11 11 11 11 11 11 11 9 7 5 5 5 5 6 7 7 7 7 6 7 9 9 7 8 8 7 7 7 6 6 5 4 4 4 4 5 5 5 8 9 10 10 8 5 4 6 10 14 18 21 22 22 21 19 16 13 11 8 6 5 5 7 8 9 10 11 12 13 15 15 16 17 17 18 18 19 19 19 19 20 20 20 20 20 20 20 20 20 20 20 19 18 16 15 15 13
11 11 11 11 10 11 12 11 11 8 5 6 6 5 7 7 5 6 6 6 9 10 8 8 9 9 9 8 8 7 6 5 5 5 4 4 4 3 4 7 9 11 10 8 6 5 8 11 14 18 22 23 22 20 17 13 10 7 4 4 5 8 9 11 13 14 15 16 18 19 18 17 17 17 18 20 21 21 21 21 21 20 20 20 20 20 20 21 21 21 22 23 24 24 24 23 23
9 9 10 11 10 11 13 10 9 8 6 6 4 3 6 6 4 5 6 7 9 10 9 9 9 11 11 9 8 8 7 6 6 5 4 4 3 2 3 5 9 11 10 8 7 6 8 11 15 19 22 23 22 19 15 11 8 4 3 5 8 10 12 14 16 18 20 21 21 21 19 18 18 20 21 23 22 21 20 18 17 15 15 14 15 16 17 19 19 20 20 21 22 23 24 26 26
Height
5806 5807 5808 5809 5809 5810 5811 5812 5813 5813 5814 5816 5817 5817 5817 5818 5818 5817 5816 5816 5818 5818 5818 5818 5818 5818 5817 5817 5816 5816 5816 5816 5816 5816 5815 5816 5816 5816 5816 5815 5816 5817 5817 5815 5816 5816 5816 5815 5815 5815 5815 5815 5815 5815 5815 5815 5815 5815 5815 5816 5816 5816 5817 5817 5817 5817 5817 5817 5817 5817 5817 5817 5817 5818 5818 5818 5819 5819 5819 5820 5820 5821 5821 5822 5822 5822 5822 5823 5823 5824 5824 5825 5825 5825 5825 5826 5826
5807 5807 5808 5809 5809 5810 5811 5812 5812 5813 5815 5816 5816 5815 5816 5817 5816 5815 5815 5816 5817 5817 5817 5817 5816 5816 5815 5815 5815 5813 5815 5815 5813 5814 5813 5813 5813 5813 5813 5812 5813 5815 5814 5813 5813 5813 5813 5813 5812 5812 5812 5812 5812 5812 5812 5812 5812 5813 5813 5813 5813 5813 5814 5814 5814 5814 5814 5814 5814 5814 5815 5815 5815 5815 5815 5815 5816 5816 5816 5817 5817 5818 5818 5818 5819 5819 5819 5819 5820 5820 5821 5821 5822 5822 5822 5823 5823
5807 5808 5808 5809 5810 5810 5811 5812 5812 5813 5814 5815 5815 5814 5815 5815 5814 5814 5815 5815 5815 5815 5815 5815 5814 5814 5814 5814 5813 5812 5814 5813 5811 5812 5811 5811 5810 5811 5810 5809 5810 5812 5812 5811 5811 5811 5810 5810 5810 5810 5810 5810 5810 5810 5810 5810 5810 5810 5810 5811 5811 5811 5811 5811 5811 5811 5811 5811 5811 5811 5811 5811 5812 5812 5812 5812 5812 5813 5813 5813 5814 5814 5815 5815 5815 5815 5816 5816 5816 5816 5817 5818 5818 5818 5819 5820 5820
5807 5808 5808 5809 5810 5810 5810 5811 5812 5812 5813 5814 5813 5813 5813 5812 5813 5814 5813 5813 5813 5813 5813 5813 5813 5812 5812 5812 5810 5810 5812 5811 5809 5810 5809 5808 5808 5808 5807 5807 5808 5810 5810 5808 5809 5808 5808 5808 5807 5807 5807 5807 5807 5807 5807 5807 5807 5808 5808 5808 5808 5808 5808 5808 5808 5808 5808 5808 5808 5808 5808 5808 5808 5808 5809 5809 5809 5809 5809 5810 5810 5810 5811 5811 5811 5812 5812 5812 5812 5812 5813 5814 5814 5815 5815 5816 5817
5807 5807 5808 5808 5809 5809 5810 5810 5811 5811 5812 5811 5811 5811 5809 5810 5813 5812 5811 5812 5811 5811 5811 5811 5811 5810 5810 5810 5808 5808 5809 5809 5807 5807 5806 5806 5806 5805 5805 5804 5805 5807 5807 5806 5806 5805 5805 5805 5805 5805 5804 5804 5804 5804 5805 5805 5805 5805 5805 5805 5805 5805 5805 5805 5805 5805 5805 5805 5805 5805 5805 5805 5805 5805 5805 5805 5805 5805 5806 5806 5806 5806 5807 5807 5807 5807 5807 5807 5808 5808 5808 5809 5810 5811 5811 5812 5813
5807 5807 5807 5808 5808 5808 5808 5809 5810 5810 5810 5809 5810 5809 5807 5810 5811 5809 5810 5810 5810 5810 5809 5809 5809 5808 5808 5807 5806 5806 5806 5806 5805 5804 5804 5804 5803 5803 5803 5802 5802 5804 5804 5804 5803 5801 5802 5802 5802 5801 5801 5801 5801 5802 5802 5802 5802 5802 5803 5802 5802 5802 5802 5802 5802 5802 5801 5802 5802 5801 5801 5801 5801 5801 5801 5801 5801 5801 5801 5801 5801 5802 5802 5802 5802 5802 5803 5803 5803 5803 5804 5805 5805 5806 5807 5808 5809
5806 5806 5806 5807 5807 5808 5808 5809 5809 5809 5809 5807 5808 5806 5806 5809 5809 5808 5809 5808 5808 5808 5808 5808 5807 5807 5806 5805 5804 5803 5803 5804 5803 5802 5802 5801 5801 5801 5800 5800 5799 5800 5801 5801 5800 5799 5799 5798 5798 5798 5798 5799 5798 5799 5799 5799 5799 5799 5799 5799 5799 5799 5798 5798 5798 5798 5798 5798 5798 5798 5797 5797 5797 5796 5796 5796 5796 5796 5797 5797 5797 5797 5797 5797 5797 5798 5798 5798 5798 5799 5799 5800 5801 5802 5802 5803 5804
5805 5805 5806 5806 5806 5807 5808 5808 5808 5808 5808 5807 5806 5805 5806 5808 5807 5807 5807 5807 5807 5807 5807 5806 5805 5805 5804 5803 5802 5801 5801 5801 5801 5800 5800 5799 5799 5799 5798 5798 5797 5797 5797 5797 5797 5796 5796 5795 5795 5795 5795 5795 5795 5796 5796 5796 5796 5796 5796 5795 5795 5795 5795 5794 5794 5794 5794 5794 5794 5793 5793 5793 5792 5792 5792 5792 5792 5791 5792 5792 5792 5792 5793 5793 5793 5793 5794 5794 5794 5794 5794 5795 5796 5797 5797 5798 5798
5804 5804 5805 5805 5806 5807 5807 5807 5807 5807 5807 5806 5805 5804 5806 5807 5806 5806 5806 5805 5806 5806 5806 5804 5803 5803 5802 5800 5801 5800 5799 5799 5798 5798 5798 5797 5797 5797 5796 5795 5794 5794 5794 5793 5793 5792 5792 5792 5792 5792 5792 5792 5792 5792 5792 5792 5792 5792 5791 5791 5791 5791 5790 5790 5790 5789 5789 5789 5789 5788 5788 5788 5787 5787 5787 5787 5787 5787 5787 5787 5787 5787 5788 5788 5789 5789 5789 5789 5790 5790 5790 5790 5791 5792 5792 5793 5793
5803 5804 5804 5805 5805 5806 5806 5806 5806 5806 5806 5805 5803 5804 5807 5806 5805 5805 5805 5804 5804 5805 5804 5802 5801 5800 5799 5798 5799 5798 5797 5797 5796 5796 5795 5795 5794 5794 5793 5791 5790 5790 5790 5789 5789 5789 5789 5789 5789 5789 5789 5788 5788 5788 5788 5788 5788 5787 5787 5787 5786 5786 5786 5785 5785 5784 5784 5784 5783 5783 5783 5783 5782 5782 5782 5782 5782 5782 5782 5782 5782 5783 5783 5784 5784 5784 5785 5785 5785 5785 5785 5785 5786 5787 5787 5787 5787
5803 5803 5804 5804 5804 5805 5805 5805 5805 5805 5804 5802 5802 5804 5805 5804 5803 5803 5803 5802 5802 5803 5801 5800 5799 5798 5796 5796 5798 5796 5795 5795 5793 5793 5792 5791 5791 5790 5789 5788 5787 5787 5787 5786 5785 5785 5785 5785 5785 5785 5784 5784 5784 5784 5784 5783 5783 5782 5782 5781 5781 5781 5780 5780 5780 5779 5779 5779 5778 5778 5777 5777 5777 5777 5776 5776 5777 5777 5777 5778 5778 5778 5778 5779 5779 5779 5780 5780 5780 5780 5780 5780 5780 5780 5781 5781 5781
5803 5803 5803 5803 5804 5803 5803 5804 5803 5803 5802 5800 5802 5803 5803 5802 5801 5801 5800 5799 5799 5799 5798 5797 5796 5795 5793 5793 5795 5793 5792 5791 5790 5789 5788 5788 5787 5786 5785 5784 5784 5783 5784 5783 5782 5782 5782 5781 5781 5780 5780 5779 5779 5779 5779 5778 5778 5777 5777 5776 5776 5776 5775 5775 5774 5774 5773 5773 5773 5772 5772 5772 5772 5772 5772 5771 5772 5772 5773 5773 5773 5773 5773 5773 5773 5773 5774 5774 5774 5773 5773 5773 5773 5773 5774 5774 5775
5802 5802 5802 5802 5802 5802 5802 5802 5801 5801 5799 5798 5800 5801 5800 5799 5798 5798 5797 5796 5796 5796 5795 5793 5792 5791 5790 5791 5791 5789 5788 5787 5787 5786 5785 5784 5783 5783 5782 5781 5781 5780 5780 5780 5779 5778 5778 5777 5777 5776 5776 5775 5775 5774 5774 5773 5773 5772 5772 5771 5771 5770 5770 5769 5769 5768 5768 5767 5767 5767 5767 5767 5767 5767 5767 5767 5767 5767 5767 5767 5767 5767 5767 5767 5767 5767 5767 5767 5767 5767 5766 5766 5766 5767 5767 5767 5768
5801 5801 5801 5801 5801 5800 5800 5799 5799 5798 5796 5796 5799 5798 5797 5796 5795 5795 5793 5792 5793 5792 5791 5790 5789 5788 5787 5788 5788 5787 5785 5784 5783 5782 5781 5781 5780 5780 5779 5778 5777 5777 5777 5776 5775 5775 5775 5774 5773 5772 5771 5771 5770 5770 5769 5769 5768 5767 5767 5766 5765 5765 5764 5764 5763 5763 5762 5762 5762 5762 5761 5761 5761 5761 5761 5761 5761 5761 5761 5761 5761 5761 5760 5760 5760 5760 5761 5760 5760 5760 5760 5760 5761 5761 5761 5761 5762
5800 5800 5800 5800 5799 5798 5798 5797 5797 5796 5794 5796 5797 5794 5793 5793 5792 5791 5790 5789 5789 5789 5788 5787 5786 5785 5784 5784 5785 5784 5783 5781 5780 5779 5779 5778 5777 5777 5776 5775 5774 5774 5773 5772 5772 5771 5770 5770 5769 5768 5768 5767 5766 5766 5765 5764 5763 5762 5762 5761 5760 5759 5759 5758 5758 5757 5757 5757 5756 5756 5756 5756 5755 5755 5755 5755 5755 5754 5754 5754 5754 5754 5754 5754 5754 5754 5754 5754 5754 5754 5754 5755 5755 5755 5755 5755 5756
5798 5798 5798 5798 5798 5796 5795 5795 5796 5794 5792 5794 5795 5791 5790 5791 5790 5788 5788 5787 5786 5785 5785 5784 5784 5783 5782 5781 5781 5781 5780 5779 5777 5777 5776 5775 5774 5773 5773 5772 5771 5770 5769 5768 5768 5767 5766 5766 5765 5764 5764 5763 5762 5762 5761 5759 5758 5758 5757 5756 5755 5754 5754 5753 5753 5752 5751 5751 5750 5750 5750 5749 5749 5749 5749 5748 5748 5748 5747 5748 5748 5748 5748 5748 5747 5748 5748 5748 5747 5748 5748 5748 5749 5749 5749 5749 5749
5797 5797 5797 5797 5796 5794 5794 5794 5794 5793 5790 5791 5793 5789 5788 5789 5789 5785 5785 5785 5783 5782 5782 5782 5782 5780 5779 5778 5777 5776 5776 5775 5774 5773 5772 5772 5771 5770 5769 5768 5767 5766 5765 5764 5763 5763 5762 5762 5761 5760 5759 5758 5757 5757 5756 5754 5753 5753 5751 5750 5749 5749 5748 5748 5747 5746 5745 5744 5744 5743 5743 5743 5743 5743 5743 5742 5742 5742 5741 5741 5742 5742 5741 5741 5741 5741 5741 5741 5741 5741 5741 5741 5742 5742 5742 5742 5742
5795 5795 5795 5795 5793 5792 5792 5792 5792 5791 5788 5788 5790 5788 5785 5786 5786 5784 5782 5781 5780 5780 5780 5779 5779 5777 5776 5775 5773 5772 5772 5771 5770 5769 5768 5768 5767 5766 5765 5764 5763 5762 5761 5760 5759 5758 5757 5757 5756 5755 5754 5753 5752 5752 5751 5749 5748 5747 5746 5745 5744 5743 5742 5741 5741 5740 5739 5738 5737 5737 5737 5737 5737 5737 5737 5736 5736 5736 5734 5734 5734 5735 5734 5734 5733 5733 5733 5733 5733 5733 5733 5734 5734 5734 5735 5735 5735
5794 5794 5793 5793 5791 5790 5790 5790 5789 5789 5787 5785 5786 5786 5783 5782 5782 5782 5779 5778 5778 5778 5777 5776 5775 5774 5772 5771 5770 5769 5768 5767 5766 5765 5764 5763 5762 5761 5760 5759 5758 5757 5756 5756 5755 5754 5753 5752 5751 5750 5749 5748 5747 5746 5744 5743 5742 5741 5740 5739 5737 5736 5735 5735 5735 5734 5733 5732 5731 5731 5731 5730 5730 5730 5730 5729 5728 5728 5728 5727 5726 5726 5726 5725 5725 5726 5725 5725 5725 5725 5725 5726 5726 5727 5727 5728 5728
5792 5792 5791 5790 5790 5788 5787 5788 5787 5786 5785 5783 5783 5782 5781 5779 5778 5779 5777 5774 5776 5776 5773 5772 5772 5771 5769 5767 5766 5765 5764 5762 5762 5761 5760 5759 5758 5757 5756 5754 5754 5752 5751 5751 5750 5748 5747 5746 5746 5745 5743 5742 5741 5739 5738 5737 5735 5734 5733 5731 5730 5730 5729 5728 5729 5727 5726 5726 5725 5724 5724 5723 5723 5723 5723 5721 5720 5721 5720 5719 5718 5718 5718 5717 5717 5717 5717 5717 5717 5718 5718 5718 5718 5719 5719 5720 5720
5790 5790 5789 5788 5789 5786 5786 5787 5784 5783 5783 5781 5780 5779 5778 5776 5775 5776 5774 5771 5771 5771 5769 5768 5768 5767 5766 5763 5762 5761 5759 5758 5757 5756 5755 5754 5753 5752 5751 5749 5749 5747 5746 5746 5744 5742 5741 5740 5739 5738 5737 5735 5733 5732 5731 5730 5728 5727 5726 5724 5723 5723 5722 5721 5722 5721 5719 5718 5718 5716 5716 5716 5715 5715 5715 5714 5712 5712 5712 5711 5710 5710 5710 5709 5709 5709 5709 5709 5709 5709 5710 5710 5710 5711 5711 5711 5712
5787 5788 5786 5786 5786 5783 5784 5785 5782 5781 5780 5778 5777 5776 5774 5773 5774 5773 5770 5768 5767 5765 5764 5764 5763 5762 5762 5760 5758 5757 5755 5754 5752 5751 5750 5749 5747 5746 5745 5744 5743 5742 5741 5740 5737 5735 5734 5733 5732 5731 5730 5728 5726 5725 5725 5723 5721 5720 5719 5717 5716 5716 5715 5714 5713 5714 5712 5710 5710 5709 5708 5708 5707 5707 5707 5706 5705 5704 5703 5703 5702 5702 5701 5701 5701 5700 5700 5700 5700 5701 5701 5701 5701 5702 5702 5703 5703
5785 5785 5784 5784 5783 5781 5782 5782 5780 5779 5777 5776 5774 5772 5770 5768 5771 5770 5766 5764 5763 5761 5759 5758 5757 5756 5756 5755 5754 5752 5751 5749 5747 5746 5745 5743 5741 5740 5740 5739 5737 5736 5735 5733 5730 5728 5727 5727 5725 5724 5723 5720 5718 5718 5718 5716 5714 5713 5711 5709 5709 5708 5707 5706 5705 5706 5705 5702 5702 5701 5700 5700 5699 5698 5698 5697 5697 5695 5695 5694 5693 5693 5693 5692 5692 5691 5691 5691 5691 5692 5692 5692 5692 5693 5693 5694 5694
5783 5782 5781 5782 5780 5778 5779 5778 5776 5775 5773 5772 5769 5768 5766 5764 5766 5766 5762 5761 5759 5757 5756 5754 5752 5750 5750 5750 5748 5747 5746 5744 5741 5740 5740 5738 5736 5735 5734 5733 5731 5729 5728 5727 5724 5721 5720 5720 5718 5716 5715 5713 5711 5710 5710 5708 5706 5705 5704 5702 5701 5700 5699 5699 5698 5698 5697 5695 5694 5693 5692 5691 5690 5690 5689 5688 5688 5687 5686 5685 5684 5684 5684 5683 5683 5682 5682 5682 5682 5683 5683 5683 5683 5684 5684 5684 5685
5781 5779 5778 5778 5777 5776 5775 5773 5772 5771 5769 5767 5765 5764 5762 5761 5761 5760 5758 5757 5755 5754 5752 5750 5748 5746 5745 5744 5743 5741 5740 5738 5736 5735 5734 5732 5731 5729 5727 5726 5724 5722 5721 5719 5717 5714 5713 5712 5711 5709 5707 5706 5704 5702 5701 5700 5698 5697 5696 5694 5693 5692 5691 5691 5690 5690 5689 5688 5686 5685 5684 5683 5682 5681 5680 5679 5679 5678 5677 5676 5675 5675 5674 5674 5674 5673 5673 5673 5673 5673 5674 5674 5674 5674 5675 5675 5675
5778 5776 5775 5773 5773 5773 5770 5769 5768 5766 5765 5762 5760 5760 5759 5757 5756 5755 5754 5753 5751 5750 5749 5747 5745 5743 5741 5739 5738 5736 5734 5732 5730 5729 5728 5726 5724 5722 5720 5719 5717 5716 5714 5712 5710 5708 5706 5705 5703 5701 5699 5698 5696 5695 5693 5692 5690 5689 5687 5686 5685 5684 5683 5682 5682 5681 5681 5680 5678 5677 5675 5674 5673 5672 5671 5670 5670 5669 5668 5667 5666 5666 5665 5665 5665 5664 5663 5664 5664 5663 5664 5664 5665 5665 5665 5665 5666
5774 5773 5772 5769 5768 5769 5767 5765 5764 5762 5761 5758 5756 5756 5755 5753 5752 5751 5749 5748 5747 5745 5744 5742 5740 5738 5736 5734 5733 5731 5728 5726 5725 5723 5722 5720 5718 5716 5714 5712 5711 5709 5707 5705 5703 5701 5699 5697 5695 5693 5691 5689 5688 5686 5685 5683 5682 5680 5679 5678 5677 5676 5675 5674 5673 5672 5672 5671 5670 5668 5666 5665 5664 5663 5662 5661 5661 5660 5659 5658 5657 5657 5656 5656 5656 5655 5654 5654 5654 5654 5654 5655 5655 5655 5655 5655 5656
5770 5769 5768 5766 5764 5764 5763 5761 5761 5759 5756 5754 5752 5752 5751 5749 5747 5746 5744 5744 5742 5740 5739 5737 5735 5733 5731 5729 5727 5725 5723 5721 5720 5718 5716 5714 5712 5710 5707 5705 5703 5701 5699 5697 5695 5693 5691 5689 5687 5685 5683 5681 5680 5678 5677 5675 5673 5672 5671 5669 5668 5667 5666 5665 5664 5663 5662 5662 5661 5659 5657 5656 5656 5654 5653 5652 5651 5651 5650 5649 5648 5647 5647 5647 5646 5645 5645 5645 5644 5644 5644 5645 5645 5645 5645 5645 5646
5766 5765 5764 5762 5760 5760 5760 5757 5756 5755 5752 5750 5748 5748 5748 5746 5742 5741 5739 5739 5737 5735 5734 5732 5729 5727 5725 5724 5722 5720 5717 5716 5714 5712 5710 5708 5706 5703 5701 5699 5696 5694 5692 5690 5688 5686 5684 5681 5679 5677 5675 5674 5672 5670 5668 5667 5665 5664 5662 5661 5660 5659 5657 5656 5655 5654 5653 5652 5652 5651 5648 5646 5647 5645 5643 5643 5642 5641 5640 5639 5639 5638 5638 5638 5636 5635 5635 5635 5634 5634 5634 5635 5635 5636 5636 5635 5635
5763 5762 5760 5758 5755 5756 5757 5754 5753 5751 5748 5745 5743 5743 5745 5741 5738 5736 5735 5735 5732 5730 5729 5726 5724 5722 5720 5718 5716 5714 5712 5710 5708 5706 5704 5702 5699 5697 5694 5691 5689 5687 5684 5682 5680 5678 5676 5674 5671 5669 5667 5666 5664 5662 5660 5659 5657 5656 5654 5653 5652 5650 5649 5648 5647 5645 5644 5643 5643 5642 5639 5637 5637 5636 5634 5633 5632 5631 5630 5629 5628 5628 5628 5628 5626 5625 5625 5625 5624 5624 5624 5625 5625 5625 5625 5625 5625
5759 5758 5757 5755 5752 5752 5752 5750 5749 5748 5745 5742 5738 5739 5740 5736 5733 5731 5729 5729 5728 5725 5724 5721 5719 5717 5714 5712 5710 5708 5706 5703 5701 5699 5697 5695 5692 5690 5687 5684 5682 5680 5677 5675 5673 5670 5668 5666 5664 5662 5660 5658 5656 5655 5653 5651 5650 5648 5647 5645 5643 5642 5641 5639 5637 5636 5634 5632 5632 5632 5629 5627 5627 5626 5624 5623 5622 5620 5620 5619 5618 5618 5618 5618 5616 5614 5614 5614 5614 5614 5615 5615 5615 5615 5615 5615 5615
5756 5755 5753 5751 5749 5748 5747 5746 5744 5743 5739 5737 5736 5734 5734 5731 5727 5725 5724 5724 5722 5720 5718 5716 5714 5711 5709 5706 5704 5702 5699 5697 5695 5692 5690 5688 5685 5683 5680 5678 5675 5673 5670 5668 5666 5664 5662 5659 5657 5655 5653 5651 5649 5648 5646 5644 5642 5640 5638 5636 5634 5632 5631 5629 5627 5626 5623 5621 5621 5621 5619 5617 5616 5615 5614 5613 5612 5610 5610 5609 5608 5608 5608 5607 5606 5605 5604 5604 5604 5604 5605 5604 5604 5605 5605 5604 5604
5753 5753 5750 5748 5746 5744 5743 5742 5740 5737 5733 5733 5733 5730 5729 5726 5722 5720 5719 5718 5716 5714 5712 5710 5707 5705 5703 5700 5698 5695 5693 5691 5688 5686 5683 5681 5679 5676 5674 5672 5669 5667 5664 5662 5660 5657 5655 5653 5651 5648 5646 5644 5641 5639 5637 5635 5633 5631 5629 5627 5625 5622 5621 5619 5617 5615 5613 5611 5610 5611 5610 5607 5605 5605 5604 5603 5602 5600 5600 5599 5598 5598 5597 5597 5596 5595 5593 5593 5593 5594 5594 5593 5593 5594 5594 5594 5593
5748 5748 5747 5744 5742 5739 5738 5738 5736 5732 5728 5729 5729 5725 5723 5721 5717 5715 5713 5712 5710 5708 5706 5703 5701 5699 5696 5694 5692 5689 5687 5684 5682 5680 5677 5675 5672 5670 5668 5665 5663 5660 5658 5655 5653 5651 5648 5645 5643 5640 5638 5635 5633 5630 5628 5626 5624 5621 5619 5617 5615 5613 5611 5610 5608 5606 5604 5601 5600 5600 5600 5597 5595 5594 5594 5593 5591 5590 5589 5588 5587 5587 5587 5587 5585 5584 5583 5582 5582 5583 5583 5583 5582 5582 5582 5582 5582
5745 5744 5742 5741 5738 5735 5734 5733 5730 5726 5723 5726 5725 5720 5717 5715 5712 5710 5707 5706 5704 5702 5700 5698 5695 5693 5690 5688 5686 5683 5681 5678 5676 5674 5671 5669 5666 5664 5661 5658 5656 5653 5651 5649 5646 5643 5641 5638 5636 5633 5630 5628 5625 5623 5620 5618 5615 5613 5611 5609 5606 5604 5602 5600 5599 5597 5595 5592 5590 5589 5589 5588 5585 5583 5583 5583 5581 5579 5579 5577 5577 5576 5576 5575 5574 5573 5572 5571 5571 5571 5572 5572 5572 5571 5570 5570 5569
5743 5741 5739 5737 5735 5733 5732 5729 5725 5721 5719 5720 5720 5716 5713 5709 5708 5705 5703 5701 5698 5697 5695 5692 5690 5688 5685 5682 5680 5677 5675 5672 5670 5667 5665 5662 5660 5657 5654 5652 5649 5647 5644 5642 5639 5636 5634 5631 5629 5626 5623 5620 5618 5615 5612 5610 5607 5605 5602 5600 5598 5595 5593 5591 5589 5588 5586 5583 5581 5580 5579 5578 5576 5573 5572 5572 5571 5569 5567 5566 5565 5564 5564 5563 5562 5562 5560 5559 5559 5559 5559 5560 5560 5560 5558 5557 5556
5740 5738 5736 5734 5732 5729 5729 5726 5721 5717 5715 5716 5714 5711 5708 5705 5703 5701 5698 5696 5693 5691 5689 5687 5685 5682 5680 5677 5675 5672 5669 5667 5664 5662 5659 5656 5653 5651 5648 5646 5643 5641 5638 5635 5633 5630 5627 5624 5622 5619 5616 5613 5610 5607 5604 5602 5599 5597 5594 5591 5589 5586 5583 5581 5579 5578 5576 5573 5571 5569 5568 5567 5566 5563 5561 5561 5560 5558 5556 5555 5554 5553 5552 5551 5550 5549 5548 5547 5546 5546 5547 5548 5548 5548 5547 5545 5543
5736 5735 5732 5730 5728 5726 5724 5722 5718 5713 5710 5711 5709 5706 5703 5700 5698 5696 5693 5691 5688 5686 5684 5681 5679 5677 5674 5672 5669 5667 5664 5661 5659 5656 5653 5650 5648 5645 5642 5640 5637 5635 5632 5629 5626 5623 5620 5617 5614 5612 5609 5605 5603 5599 5596 5593 5590 5588 5586 5583 5580 5577 5574 5571 5569 5567 5565 5563 5560 5559 5556 5555 5554 5553 5550 5549 5549 5547 5545 5544 5542 5541 5540 5538 5538 5537 5536 5535 5533 5533 5534 5536 5536 5535 5535 5533 5531
5733 5731 5729 5726 5724 5722 5720 5717 5714 5709 5706 5707 5705 5700 5698 5695 5692 5690 5688 5686 5683 5681 5679 5676 5674 5671 5669 5666 5663 5661 5658 5656 5653 5650 5648 5645 5642 5640 5637 5634 5631 5628 5625 5623 5619 5616 5613 5610 5607 5604 5601 5598 5595 5592 5588 5585 5582 5579 5577 5574 5571 5568 5565 5562 5560 5557 5555 5552 5550 5548 5545 5543 5542 5541 5539 5537 5537 5535 5533 5531 5530 5529 5528 5526 5525 5524 5524 5522 5521 5520 5521 5523 5523 5522 5522 5521 5519
5730 5728 5726 5723 5720 5718 5715 5712 5709 5705 5701 5701 5699 5695 5692 5689 5687 5685 5682 5680 5678 5675 5673 5670 5668 5665 5663 5660 5657 5655 5653 5650 5647 5645 5642 5639 5637 5634 5631 5628 5625 5622 5619 5616 5613 5610 5607 5603 5600 5597 5594 5590 5587 5584 5580 5577 5573 5570 5567 5565 5561 5558 5555 5552 5550 5547 5544 5542 5539 5537 5534 5531 5529 5528 5526 5525 5525 5523 5521 5519 5518 5517 5515 5513 5513 5512 5511 5510 5508 5508 5508 5509 5509 5509 5509 5509 5507
5725 5724 5722 5720 5717 5714 5711 5708 5704 5700 5696 5695 5693 5689 5687 5684 5681 5680 5677 5674 5672 5669 5666 5663 5661 5659 5656 5654 5651 5649 5647 5644 5641 5639 5636 5634 5631 5628 5625 5622 5619 5616 5613 5610 5606 5603 5600 5596 5593 5590 5586 5582 5579 5575 5572 5568 5565 5561 5558 5555 5552 5548 5545 5542 5539 5536 5533 5531 5528 5526 5523 5520 5517 5515 5513 5513 5512 5511 5509 5507 5505 5503 5501 5499 5499 5499 5498 5497 5496 5495 5495 5495 5495 5495 5495 5496 5496
5721 5719 5717 5715 5713 5710 5707 5703 5700 5695 5691 5689 5687 5683 5681 5679 5676 5674 5672 5669 5667 5664 5661 5658 5655 5653 5650 5648 5646 5643 5641 5638 5636 5633 5630 5628 5625 5622 5619 5615 5612 5609 5606 5603 5599 5596 5592 5589 5585 5582 5578 5574 5570 5566 5562 5559 5555 5551 5548 5545 5542 5538 5534 5531 5528 5525 5522 5519 5517 5514 5511 5508 5505 5503 5500 5499 5499 5499 5497 5494 5492 5490 5487 5485 5485 5485 5484 5483 5482 5482 5481 5481 5481 5480 5480 5482 5483
5718 5715 5713 5710 5708 5705 5702 5699 5695 5691 5687 5684 5682 5677 5674 5674 5671 5668 5667 5664 5661 5658 5656 5653 5651 5648 5646 5643 5641 5638 5636 5633 5630 5628 5625 5622 5619 5616 5612 5609 5606 5602 5599 5595 5591 5588 5584 5581 5577 5573 5569 5566 5561 5556 5552 5548 5545 5541 5537 5534 5530 5526 5523 5520 5516 5513 5510 5507 5505 5502 5499 5496 5493 5490 5487 5486 5485 5485 5484 5482 5480 5477 5474 5472 5471 5470 5469 5468 5468 5467 5467 5466 5467 5466 5465 5467 5469
5715 5712 5709 5706 5703 5700 5697 5694 5690 5687 5683 5679 5678 5673 5669 5669 5668 5664 5662 5660 5656 5653 5650 5648 5646 5644 5641 5639 5636 5634 5631 5628 5625 5623 5620 5617 5613 5610 5606 5603 5599 5596 5592 5588 5584 5580 5576 5572 5568 5564 5560 5556 5552 5547 5542 5538 5534 5531 5527 5523 5519 5515 5511 5508 5504 5501 5497 5494 5492 5488 5485 5483 5479 5476 5474 5472 5471 5471 5470 5468 5466 5463 5460 5458 5457 5455 5455 5454 5453 5452 5452 5451 5452 5452 5451 5451 5453
5711 5708 5705 5701 5698 5695 5692 5689 5685 5682 5678 5674 5673 5670 5665 5664 5664 5660 5657 5655 5653 5651 5647 5644 5642 5640 5637 5634 5632 5629 5626 5623 5620 5617 5614 5611 5608 5604 5599 5595 5592 5589 5585 5581 5577 5573 5569 5564 5560 5556 5551 5547 5543 5538 5533 5528 5523 5519 5515 5511 5507 5503 5499 5496 5492 5488 5484 5481 5478 5475 5472 5469 5465 5462 5459 5457 5456 5455 5454 5453 5451 5448 5446 5444 5442 5441 5440 5439 5438 5437 5436 5436 5435 5436 5436 5435 5437
5706 5703 5700 5697 5693 5690 5687 5684 5681 5677 5673 5669 5668 5666 5662 5660 5660 5656 5652 5650 5648 5646 5644 5640 5638 5636 5633 5630 5627 5624 5621 5618 5615 5611 5608 5605 5603 5601 5595 5589 5586 5583 5579 5575 5570 5566 5561 5556 5551 5546 5542 5537 5533 5528 5522 5517 5512 5507 5503 5499 5495 5490 5486 5482 5478 5474 5470 5467 5464 5460 5457 5454 5451 5448 5444 5442 5440 5439 5438 5437 5435 5433 5431 5429 5427 5425 5424 5423 5423 5422 5421 5420 5420 5420 5420 5420 5420
5701 5698 5695 5692 5688 5686 5683 5679 5676 5673 5669 5666 5665 5663 5659 5656 5655 5652 5648 5646 5643 5641 5640 5638 5635 5632 5629 5626 5623 5620 5617 5613 5610 5606 5603 5599 5596 5594 5590 5584 5580 5576 5572 5567 5562 5557 5552 5547 5541 5536 5532 5527 5522 5517 5511 5505 5499 5494 5490 5486 5482 5476 5472 5468 5465 5461 5457 5453 5450 5446 5443 5440 5436 5433 5430 5427 5425 5423 5422 5420 5418 5416 5415 5413 5411 5409 5408 5407 5406 5405 5405 5404 5404 5404 5404 5404 5404
5696 5693 5690 5687 5683 5680 5678 5674 5671 5669 5666 5664 5664 5661 5658 5654 5652 5649 5646 5644 5641 5639 5636 5634 5631 5628 5625 5622 5619 5615 5612 5608 5605 5600 5597 5593 5588 5585 5581 5576 5571 5567 5563 5558 5553 5548 5543 5537 5531 5526 5521 5516 5511 5505 5500 5493 5487 5481 5476 5472 5468 5462 5457 5453 5450 5446 5442 5439 5435 5432 5429 5426 5423 5419 5416 5413 5411 5409 5408 5405 5402 5401 5399 5397 5396 5394 5392 5391 5390 5389 5389 5388 5388 5387 5387 5388 5388
5691 5687 5684 5681 5678 5675 5673 5671 5669 5668 5664 5662 5660 5659 5656 5654 5651 5648 5645 5642 5639 5636 5633 5630 5627 5624 5620 5617 5614 5610 5607 5603 5599 5595 5591 5587 5582 5577 5572 5568 5563 5558 5554 5549 5545 5539 5533 5527 5521 5515 5509 5504 5499 5493 5487 5481 5475 5469 5463 5458 5454 5449 5444 5439 5435 5431 5428 5424 5421 5418 5415 5412 5410 5407 5403 5400 5398 5396 5395 5392 5389 5387 5385 5383 5381 5380 5378 5377 5375 5374 5373 5372 5372 5371 5371 5371 5371
5686 5682 5678 5675 5672 5670 5668 5667 5666 5664 5662 5659 5657 5655 5653 5651 5649 5645 5643 5640 5636 5633 5630 5626 5623 5619 5616 5612 5609 5605 5602 5598 5594 5590 5585 5581 5576 5570 5565 5560 5556 5551 5546 5541 5536 5530 5524 5518 5512 5505 5498 5492 5486 5480 5474 5468 5462 5456 5451 5445 5442 5437 5432 5428 5423 5419 5416 5412 5409 5406 5403 5400 5397 5395 5391 5388 5385 5383 5382 5380 5377 5375 5372 5370 5368 5366 5364 5363 5361 5360 5359 5358 5357 5356 5355 5355 5355
5681 5677 5674 5671 5668 5667 5665 5663 5661 5660 5658 5656 5653 5652 5649 5647 5646 5642 5639 5637 5633 5630 5626 5622 5619 5615 5612 5608 5605 5601 5597 5593 5588 5584 5579 5575 5570 5564 5559 5554 5548 5543 5538 5533 5527 5521 5515 5508 5502 5495 5488 5481 5475 5468 5462 5455 5449 5444 5439 5434 5429 5425 5421 5417 5413 5409 5405 5402 5398 5395 5392 5389 5386 5383 5380 5376 5373 5371 5369 5367 5365 5363 5360 5358 5355 5353 5351 5349 5347 5346 5345 5344 5343 5342 5341 5341 5341
5678 5675 5672 5670 5667 5665 5663 5661 5659 5657 5655 5652 5649 5648 5646 5644 5643 5640 5636 5633 5629 5625 5622 5619 5615 5612 5608 5604 5600 5595 5590 5586 5581 5577 5573 5569 5564 5558 5552 5547 5541 5536 5531 5525 5520 5513 5505 5498 5491 5484 5476 5469 5463 5456 5450 5443 5438 5432 5427 5422 5418 5414 5410 5406 5402 5398 5395 5391 5387 5384 5381 5378 5374 5371 5368 5365 5362 5359 5357 5355 5353 5351 5348 5345 5343 5340 5338 5336 5334 5333 5331 5330 5329 5327 5327 5327 5326
5676 5673 5670 5668 5665 5664 5662 5660 5658 5655 5653 5651 5649 5646 5643 5640 5639 5636 5632 5629 5626 5621 5618 5614 5610 5606 5602 5597 5592 5588 5583 5578 5574 5569 5564 5561 5557 5552 5546 5541 5536 5530 5524 5518 5513 5506 5497 5489 5482 5474 5466 5459 5452 5445 5439 5432 5427 5421 5417 5412 5408 5403 5399 5395 5392 5388 5384 5380 5376 5373 5370 5366 5363 5360 5357 5354 5351 5348 5345 5343 5341 5338 5336 5333 5330 5328 5325 5323 5321 5319 5318 5316 5315 5313 5312 5313 5312
5674 5671 5668 5666 5664 5662 5660 5657 5655 5653 5651 5649 5648 5645 5640 5636 5633 5630 5627 5624 5621 5618 5613 5609 5604 5599 5594 5590 5585 5581 5577 5573 5568 5563 5558 5553 5550 5546 5540 5535 5529 5522 5516 5509 5504 5498 5489 5480 5472 5465 5456 5449 5441 5435 5429 5423 5417 5412 5407 5403 5399 5394 5390 5386 5382 5377 5373 5369 5365 5361 5358 5354 5351 5347 5344 5341 5338 5335 5332 5329 5327 5325 5322 5320 5317 5315 5312 5310 5308 5306 5304 5302 5301 5298 5297 5298 5298
5672 5669 5667 5664 5662 5660 5657 5654 5652 5649 5647 5645 5644 5641 5638 5634 5629 5626 5622 5619 5615 5611 5607 5602 5598 5594 5589 5585 5581 5576 5572 5567 5562 5557 5552 5545 5540 5536 5530 5525 5519 5513 5506 5500 5493 5487 5480 5471 5463 5454 5446 5438 5431 5425 5419 5413 5408 5403 5398 5394 5389 5385 5380 5376 5371 5367 5362 5358 5354 5350 5346 5342 5339 5335 5332 5329 5326 5323 5320 5317 5314 5312 5309 5306 5304 5301 5299 5297 5294 5292 5290 5288 5286 5284 5282 5283 5283
5670 5667 5665 5662 5660 5658 5655 5653 5650 5647 5644 5641 5639 5638 5635 5631 5626 5623 5619 5615 5611 5606 5602 5598 5594 5590 5586 5581 5577 5572 5567 5562 5556 5551 5544 5537 5532 5527 5521 5515 5510 5503 5497 5491 5484 5477 5470 5461 5453 5444 5436 5428 5421 5415 5410 5404 5399 5394 5389 5384 5380 5375 5370 5365 5360 5355 5350 5346 5342 5338 5334 5331 5327 5324 5321 5317 5314 5311 5308 5306 5302 5299 5297 5294 5291 5288 5285 5283 5280 5278 5275 5273 5272 5269 5267 5267 5267
5668 5665 5663 5661 5658 5655 5653 5651 5649 5646 5642 5638 5634 5633 5632 5629 5624 5620 5616 5612 5608 5604 5599 5594 5590 5586 5581 5577 5572 5567 5562 5556 5550 5544 5539 5532 5526 5521 5514 5508 5502 5495 5488 5481 5473 5466 5458 5450 5442 5434 5426 5419 5412 5406 5400 5395 5390 5385 5380 5375 5369 5364 5359 5354 5349 5343 5338 5334 5330 5326 5323 5319 5316 5313 5309 5306 5303 5300 5297 5295 5292 5288 5285 5282 5279 5276 5273 5270 5267 5264 5261 5259 5257 5255 5253 5252 5251
5666 5663 5660 5658 5656 5653 5650 5648 5646 5643 5639 5635 5630 5628 5628 5626 5621 5616 5612 5608 5605 5600 5595 5590 5586 5582 5577 5572 5566 5561 5555 5550 5544 5538 5533 5528 5521 5514 5508 5501 5494 5486 5479 5472 5463 5455 5448 5440 5432 5424 5416 5409 5403 5397 5391 5386 5381 5375 5370 5364 5359 5353 5348 5342 5337 5332 5327 5322 5318 5315 5311 5308 5305 5302 5299 5296 5293 5290 5287 5284 5282 5279 5275 5272 5268 5265 5261 5257 5254 5251 5248 5245 5243 5240 5239 5238 5236